TimeMDT,TemperatureF,Dew PointF,Humidity,Sea Level PressureIn,VisibilityMPH,Wind Direction,Wind SpeedMPH,Gust SpeedMPH,PrecipitationIn,Events,Conditions,WindDirDegrees,DateUTC
12:15 AM,32.0,23.0,69,-9999,10.0,WSW,15.0,21.9,N/A,,Overcast,250,2013-04-21 06:15:00
3:35 AM,30.2,23.0,75,-9999,10.0,WSW,6.9,-,N/A,,Clear,250,2013-04-21 09:35:00
3:55 AM,30.2,23.0,75,-9999,10.0,WSW,6.9,-,N/A,,Clear,250,2013-04-21 09:55:00
4:15 AM,30.2,23.0,75,-9999,10.0,SW,6.9,-,N/A,,Clear,230,2013-04-21 10:15:00
4:35 AM,30.2,23.0,75,-9999,10.0,WSW,5.8,-,N/A,,Clear,240,2013-04-21 10:35:00
5:15 AM,30.2,24.8,80,-9999,10.0,WSW,8.1,-,N/A,,Clear,240,2013-04-21 11:15:00
5:35 AM,30.2,24.8,80,-9999,10.0,SW,9.2,-,N/A,,Clear,230,2013-04-21 11:35:00
5:55 AM,28.4,24.8,86,-9999,10.0,WSW,10.4,-,N/A,,Clear,240,2013-04-21 11:55:00
6:15 AM,28.4,24.8,86,-9999,10.0,WSW,10.4,-,N/A,,Clear,250,2013-04-21 12:15:00
6:35 AM,28.4,24.8,86,-9999,10.0,SW,10.4,-,N/A,,Clear,230,2013-04-21 12:35:00
6:55 AM,28.4,24.8,86,-9999,10.0,SW,10.4,-,N/A,,Clear,230,2013-04-21 12:55:00
7:15 AM,28.4,24.8,86,-9999,10.0,WSW,10.4,-,N/A,,Clear,240,2013-04-21 13:15:00
7:35 AM,30.2,24.8,80,-9999,10.0,West,10.4,-,N/A,,Clear,260,2013-04-21 13:35:00
7:55 AM,30.2,24.8,80,-9999,10.0,WSW,10.4,-,N/A,,Clear,240,2013-04-21 13:55:00
8:15 AM,28.4,24.8,86,-9999,10.0,WSW,8.1,-,N/A,,Clear,240,2013-04-21 14:15:00
8:55 AM,32.0,24.8,75,-9999,10.0,WSW,15.0,-,N/A,,Clear,250,2013-04-21 14:55:00
9:15 AM,32.0,26.6,80,-9999,10.0,WSW,13.8,-,N/A,,Clear,250,2013-04-21 15:15:00
9:35 AM,32.0,26.6,80,-9999,10.0,WSW,18.4,21.9,N/A,,Clear,250,2013-04-21 15:35:00
9:55 AM,32.0,26.6,80,-9999,10.0,WSW,17.3,20.7,N/A,,Clear,250,2013-04-21 15:55:00
10:15 AM,32.0,26.6,80,-9999,10.0,WSW,17.3,-,N/A,,Clear,240,2013-04-21 16:15:00
10:35 AM,32.0,26.6,80,-9999,10.0,SW,17.3,20.7,N/A,,Scattered Clouds,230,2013-04-21 16:35:00
10:55 AM,33.8,24.8,70,-9999,10.0,West,15.0,19.6,N/A,,Mostly Cloudy,260,2013-04-21 16:55:00
11:15 AM,33.8,24.8,70,-9999,10.0,WSW,12.7,19.6,N/A,,Mostly Cloudy,240,2013-04-21 17:15:00
11:35 AM,33.8,23.0,65,-9999,10.0,WSW,13.8,20.7,N/A,,Overcast,250,2013-04-21 17:35:00
11:55 AM,35.6,23.0,60,-9999,10.0,WSW,10.4,19.6,N/A,,Overcast,250,2013-04-21 17:55:00
12:15 PM,37.4,21.2,52,-9999,10.0,SW,11.5,20.7,N/A,,Overcast,230,2013-04-21 18:15:00
12:35 PM,37.4,21.2,52,-9999,10.0,WSW,16.1,23.0,N/A,,Mostly Cloudy,240,2013-04-21 18:35:00
1:15 PM,37.4,21.2,52,-9999,10.0,WSW,10.4,18.4,N/A,,Mostly Cloudy,240,2013-04-21 19:15:00
1:35 PM,39.2,21.2,49,-9999,10.0,SW,11.5,18.4,N/A,,Mostly Cloudy,230,2013-04-21 19:35:00
2:15 PM,41.0,19.4,42,-9999,10.0,WSW,17.3,23.0,N/A,,Scattered Clouds,250,2013-04-21 20:15:00
2:35 PM,41.0,17.6,39,-9999,10.0,WSW,15.0,23.0,N/A,,Mostly Cloudy,250,2013-04-21 20:35:00
2:55 PM,41.0,19.4,42,-9999,10.0,West,15.0,25.3,N/A,,Mostly Cloudy,260,2013-04-21 20:55:00
3:15 PM,41.0,19.4,42,-9999,10.0,WSW,18.4,29.9,N/A,,Overcast,240,2013-04-21 21:15:00
3:35 PM,39.2,23.0,52,-9999,10.0,West,18.4,24.2,N/A,,Mostly Cloudy,260,2013-04-21 21:35:00
3:55 PM,39.2,23.0,52,-9999,10.0,West,12.7,24.2,N/A,,Mostly Cloudy,260,2013-04-21 21:55:00
4:15 PM,41.0,21.2,45,-9999,10.0,WSW,17.3,25.3,N/A,,Scattered Clouds,240,2013-04-21 22:15:00
4:35 PM,41.0,19.4,42,-9999,10.0,West,12.7,20.7,N/A,,Scattered Clouds,270,2013-04-21 22:35:00
4:55 PM,41.0,19.4,42,-9999,10.0,WSW,18.4,28.8,N/A,,Clear,250,2013-04-21 22:55:00
5:15 PM,41.0,17.6,39,-9999,10.0,West,20.7,28.8,N/A,,Scattered Clouds,260,2013-04-21 23:15:00
5:35 PM,41.0,17.6,39,-9999,10.0,WSW,18.4,28.8,N/A,,Clear,250,2013-04-21 23:35:00
5:55 PM,41.0,17.6,39,-9999,10.0,West,12.7,21.9,N/A,,Scattered Clouds,260,2013-04-21 23:55:00
6:15 PM,41.0,17.6,39,-9999,10.0,WSW,19.6,25.3,N/A,,Scattered Clouds,250,2013-04-22 00:15:00
6:35 PM,41.0,17.6,39,-9999,10.0,WSW,20.7,29.9,N/A,,Scattered Clouds,250,2013-04-22 00:35:00
6:55 PM,37.4,19.4,48,-9999,10.0,West,17.3,26.5,N/A,,Clear,260,2013-04-22 00:55:00
7:15 PM,35.6,21.2,56,-9999,10.0,WSW,19.6,29.9,N/A,,Clear,250,2013-04-22 01:15:00
7:35 PM,37.4,19.4,48,-9999,10.0,WSW,27.6,38.0,N/A,,Clear,250,2013-04-22 01:35:00
7:55 PM,35.6,21.2,56,-9999,10.0,WSW,24.2,36.8,N/A,,Clear,250,2013-04-22 01:55:00
8:15 PM,35.6,21.2,56,-9999,10.0,WSW,32.2,40.3,N/A,,Scattered Clouds,250,2013-04-22 02:15:00
8:35 PM,35.6,23.0,60,-9999,10.0,West,33.4,43.7,N/A,,Scattered Clouds,260,2013-04-22 02:35:00
8:55 PM,32.0,28.4,87,-9999,2.0,West,21.9,32.2,N/A,Snow,Light Snow,260,2013-04-22 02:55:00
9:15 PM,32.0,28.4,87,-9999,1.0,West,18.4,29.9,N/A,Snow,Light Snow,260,2013-04-22 03:15:00
9:35 PM,32.0,30.2,93,-9999,1.0,WSW,19.6,26.5,N/A,Snow,Light Snow,250,2013-04-22 03:35:00
9:55 PM,32.0,30.2,93,-9999,0.2,WSW,16.1,24.2,N/A,Snow,Heavy Snow,250,2013-04-22 03:55:00
10:15 PM,32.0,30.2,93,-9999,1.2,WSW,17.3,23.0,N/A,Snow,Light Snow,250,2013-04-22 04:15:00
10:35 PM,32.0,30.2,93,-9999,1.5,West,15.0,20.7,N/A,Snow,Light Snow,260,2013-04-22 04:35:00
10:55 PM,32.0,30.2,93,-9999,2.5,WSW,13.8,-,N/A,Snow,Light Snow,250,2013-04-22 04:55:00
11:15 PM,32.0,30.2,93,-9999,3.0,WSW,17.3,25.3,N/A,Snow,Light Snow,240,2013-04-22 05:15:00
11:35 PM,32.0,30.2,93,-9999,5.0,WSW,19.6,25.3,N/A,Snow,Light Snow,250,2013-04-22 05:35:00
11:55 PM,32.0,30.2,93,-9999,4.0,WSW,16.1,-,N/A,Snow,Light Snow,240,2013-04-22 05:55:00